User: anonymous   Login
Location: Palau
(42.3086°N, 3.1507°E)
Time: 16:41:26
(UTC+00:00)
Language:

Cosmos 2058 Rocket - Orbit

View from above orbital plane
View from above orbital plane
View from above satellite
View from above satellite

Ground track
Ground track

The orbit data is extracted from the following two-line orbital elements,

1 20466U 90010B   20228.44431965  .00000047  00000-0  29274-5 0  9998
2 20466  82.5043  11.5628 0021490 140.4854 219.7931 14.81390095648524
Epoch (UTC): 15 August 2020 10:39:49
Eccentricity: 0.0021490
inclination: 82.5043°
perigee height: 610 km
apogee height: 640 km
right ascension of ascending node: 11.5628°
argument of perigee: 140.4854°
revolutions per day: 14.81390095
mean anomaly at epoch: 219.7931°
orbit number at epoch: 64852

The dashed part of the orbit path shows where the satellite is in the earth's shadow,  

DLR